[[{"header":{"parameterUnit":"m.s-1","parameterCategory":1,"la1":30.2991,"la2":30.254,"lo1":-89.0895,"lo2":-89.0444,"dy":0.0017,"dx":0.0017,"nx":28,"ny":28,"refTime":"2023-10-22T09:00:00:Z","depth":0,"parameterNumber":2,"parameterNumberName":"U-component_of_WINDS"},"data":[0,0,0,0,0,0,0,0,0,0,0,0,0,0,0,0,0,0,0,0,0,0,0,0,0,0,0,0,0,0,0,0,0,0,0,0,0,0,0,0,0,0,0,0,0,0,0,0,0,0,0,0,0,0,0,0,0,0,0.4984,0.4986,0,0.5132,0.5134,0.5136,0.5159,0.5158,0.5157,0.5155,0.5312,0.5317,0.5323,0,0,0,0,0,0,0,0,0,0,0,0,0,0.4726,0.4731,0.4984,0.4986,0.4988,0.5132,0.5134,0.5136,0.516,0.5158,0.5156,0.5155,0.531,0.5317,0.5323,0,0,0,0,0,0,0,0,0,0,0,0,0,0.4853,0.4732,0.4984,0.5017,0.5021,0.5132,0.5134,0.5137,0.516,0.5158,0.5156,0.5154,0.5308,0.5316,0.5324,0.5414,0,0,0.5349,0.5352,0,0,0,0,0,0,0,0,0.4846,0.4862,0.501,0.5015,0.502,0.5125,0.5101,0.523,0.516,0.5107,0.5155,0.5153,0.5252,0.5265,0.5297,0.5421,0.5428,0.535,0.5355,0.5358,0.536,0,0,0,0,0,0,0,0.4837,0.4856,0.5043,0.5012,0.5018,0.5026,0.5041,0.5125,0.5189,0.5112,0.5114,0.5131,0.5254,0.5289,0.5301,0.543,0.5349,0.5357,0.5362,0.5365,0.5635,0.5637,0,0,0,0,0,0,0.4821,0.4848,0.5038,0.5047,0.4926,0.5032,0.505,0.5093,0.5188,0.5201,0.5132,0.5131,0.5276,0.5291,0.5306,0.5417,0.5358,0.5366,0.537,0.5632,0.5635,0.5638,0,0,0,0,0,0,0.4816,0.4838,0.5032,0.4949,0.4974,0.5038,0.5088,0.5097,0.5132,0.5204,0.5216,0.5156,0.5275,0.5295,0.5386,0.5422,0.5369,0.5377,0.563,0.5633,0.5636,0.5638,0,0,0,0,0,0,0.4808,0.4836,0.4869,0.4949,0.4978,0.5108,0.509,0.5102,0.5145,0.5145,0.5229,0.5241,0.5275,0.5374,0.5394,0.5433,0.5383,0.5627,0.5631,0.5635,0.5635,0.5641,0.5647,0,0,0,0,0,0.4799,0.4866,0.4871,0.4894,0.5021,0.511,0.5127,0.5164,0.5148,0.5183,0.5229,0.5238,0.5415,0.5383,0.5406,0.5448,0.5625,0.563,0.5635,0.5633,0.564,0.5646,0,0,0,0,0,0,0.4791,0.4877,0.4884,0.4978,0.5036,0.5114,0.5159,0.5171,0.5237,0.5234,0.5279,0.5297,0.5386,0.5426,0.5389,0.5539,0.5519,0.5529,0.5509,0.5517,0.5522,0.5511,0.539,0,0,0,0,0,0.4799,0.4863,0.4935,0.5011,0.504,0.5095,0.5135,0.5158,0.5221,0.5247,0.5299,0.5362,0.5431,0.5476,0.5545,0.5641,0.566,0.5681,0.5687,0.5691,0.5699,0.5753,0.5763,0.5655,0.5655,0.5654,0,0,0.4819,0.4874,0.4911,0.5011,0.5059,0.5125,0.5115,0.5186,0.5236,0.5258,0.5347,0.5387,0.546,0.5554,0.5598,0.559,0.5733,0.5697,0.57,0.5706,0.5759,0.5769,0.5778,0.5658,0.5657,0.5657,0,0,0.4888,0.4935,0.5003,0.5051,0.5124,0.5159,0.5175,0.5252,0.5279,0.5368,0.5386,0.5447,0.5566,0.5617,0.5658,0.5745,0.5756,0.5766,0.5796,0.5847,0.5856,0.5864,0.5894,0.5905,0.5774,0.5774,0.5774,0,0.4903,0.5002,0.5038,0.5107,0.515,0.5171,0.5241,0.5287,0.5378,0.5408,0.5397,0.5546,0.5597,0.5703,0.5724,0.5757,0.5777,0.5757,0.5851,0.586,0.5867,0.5897,0.5909,0.5775,0.5775,0.5775,0.5775,0,0.5017,0.5085,0.5132,0.5217,0.5266,0.5336,0.5383,0.5428,0.5447,0.5484,0.5575,0.5636,0.5716,0.5743,0.5763,0.5852,0.5844,0.5842,0.5823,0.5878,0.5906,0.5918,0.5776,0.5776,0.5775,0.5775,0,0,0.5085,0.5188,0.5205,0.5244,0.5325,0.5379,0.5449,0.5526,0.5564,0.5627,0.5687,0.5787,0.5784,0.5831,0.5857,0.5903,0.5967,0.5895,0.5897,0.5906,0.6068,0.6069,0.6081,0.5974,0.5977,0.5978,0.6062,0,0.5163,0.5288,0.5322,0.5427,0.5491,0.5512,0.5573,0.563,0.5666,0.5727,0.5768,0.5837,0.5829,0.5858,0.5903,0.5949,0.6,0.5944,0.6032,0.6034,0.6012,0.6096,0.6098,0.6173,0.6073,0.6075,0.6077,0,0.5271,0.5333,0.5444,0.5516,0.5544,0.5599,0.5671,0.5728,0.5794,0.5817,0.5868,0.589,0.5965,0.5941,0.6046,0.6007,0.6045,0.6073,0.6077,0.6086,0.6058,0.6108,0.6198,0.6209,0.6095,0.6093,0.6092,0,0.5309,0.5421,0.5501,0.5534,0.562,0.5658,0.5696,0.5759,0.5802,0.5866,0.5895,0.5968,0.6008,0.6064,0.6105,0.6084,0.6206,0.6186,0.6228,0.6227,0.6252,0.625,0.635,0.6278,0.6277,0.6277,0.6277,0,0.5392,0.5459,0.5519,0.5569,0.5645,0.5684,0.5759,0.5798,0.5854,0.5912,0.5935,0.599,0.604,0.6102,0.6135,0.6216,0.6234,0.6256,0.6264,0.6254,0.6251,0.6279,0.6275,0.628,0.628,0.6279,0.6278,0,0.5447,0.549,0.5579,0.5652,0.5673,0.5725,0.5789,0.5839,0.5875,0.5949,0.5969,0.6027,0.6101,0.6146,0.6241,0.6263,0.6352,0.6358,0.6329,0.6333,0.6372,0.6367,0.6493,0.6511,0.6427,0.6428,0.6428,0,0.5497,0.5549,0.5627,0.5667,0.5704,0.5769,0.5813,0.5854,0.5899,0.5976,0.6017,0.6091,0.6153,0.627,0.6322,0.6394,0.6402,0.6441,0.6413,0.6401,0.6402,0.6398,0.6403,0.6446,0.6446,0.6447,0.6447,0,0.5581,0.5599,0.5661,0.573,0.5781,0.5838,0.5895,0.5927,0.5978,0.6027,0.6102,0.615,0.6245,0.6319,0.6395,0.6436,0.645,0.6456,0.6469,0.6459,0.644,0.645,0.6341,0.6453,0.6452,0.6452,0.6451,0.6451,0.5635,0.5681,0.5743,0.5811,0.5858,0.591,0.596,0.6002,0.6064,0.6143,0.6164,0.6242,0.6306,0.641,0.6452,0.6514,0.6509,0.6529,0.6533,0.6538,0.6538,0.643,0.6529,0.6528,0.6528,0.6528,0.6528,0,0.5719,0.5759,0.5821,0.5899,0.5953,0.596,0.6023,0.6068,0.6135,0.6193,0.6253,0.6338,0.641,0.6467,0.6541,0.658,0.6588,0.6598,0.6595,0.6604,0.6539,0.6519,0.6589,0.6589,0.6589,0.6589,0.6589,0.6589,0.5769,0.5848,0.5874,0.5976,0.6017,0.6092,0.6127,0.6176,0.6222,0.6316,0.6375,0.641,0.6468,0.6546,0.6612,0.6627,0.6653,0.6661,0.6677,0.6615,0.6609,0.6602,0.6584,0.6667,0.6667,0.6737,0.6738,0.6739]},{"header":{"parameterUnit":"m.s-1","parameterCategory":1,"la1":30.2991,"la2":30.254,"lo1":-89.0895,"lo2":-89.0444,"dy":0.0017,"dx":0.0017,"nx":28,"ny":28,"refTime":"2023-10-22T09:00:00:Z","depth":0,"parameterNumber":3,"parameterNumberName":"V-component_of_WINDS"},"data":[0,0,0,0,0,0,0,0,0,0,0,0,0,0,0,0,0,0,0,0,0,0,0,0,0,0,0,0,0,0,0,0,0,0,0,0,0,0,0,0,0,0,0,0,0,0,0,0,0,0,0,0,0,0,0,0,0,0,2.0363,2.0363,0,2.037,2.037,2.037,2.0378,2.0378,2.0378,2.0379,2.0383,2.0383,2.0383,0,0,0,0,0,0,0,0,0,0,0,0,0,2.0351,2.0351,2.0363,2.0363,2.0363,2.037,2.037,2.037,2.0378,2.0378,2.0378,2.0379,2.0383,2.0383,2.0383,0,0,0,0,0,0,0,0,0,0,0,0,0,2.0357,2.0351,2.0363,2.0368,2.0368,2.037,2.037,2.037,2.0378,2.0378,2.0378,2.0379,2.0383,2.0383,2.0383,2.0379,0,0,2.0383,2.0383,0,0,0,0,0,0,0,0,2.0357,2.0357,2.0367,2.0367,2.0368,2.0373,2.0367,2.0373,2.0378,2.0374,2.0379,2.0379,2.0379,2.038,2.038,2.0379,2.0379,2.0383,2.0383,2.0383,2.0383,0,0,0,0,0,0,0,2.0356,2.0357,2.0365,2.0367,2.0368,2.0368,2.0369,2.0369,2.0376,2.0375,2.0375,2.0376,2.038,2.038,2.0381,2.0379,2.0383,2.0383,2.0383,2.0383,2.0372,2.0371,0,0,0,0,0,0,2.0355,2.0357,2.0365,2.0366,2.0363,2.0368,2.0369,2.0371,2.0376,2.0376,2.0376,2.0376,2.038,2.0381,2.0381,2.0374,2.0383,2.0383,2.0383,2.0372,2.0371,2.0371,0,0,0,0,0,0,2.0355,2.0356,2.0365,2.0361,2.0362,2.0368,2.037,2.0371,2.0372,2.0377,2.0378,2.0376,2.0381,2.0381,2.0379,2.0375,2.0383,2.0383,2.0372,2.0372,2.0371,2.0363,0,0,0,0,0,0,2.0355,2.0356,2.0356,2.0361,2.0363,2.0364,2.037,2.0371,2.0373,2.0373,2.0377,2.0377,2.0381,2.0379,2.0379,2.0375,2.0383,2.0373,2.0372,2.0371,2.0363,2.0362,2.0361,0,0,0,0,0,2.0354,2.0353,2.0356,2.0357,2.0363,2.0364,2.0365,2.0369,2.0372,2.0371,2.0373,2.0377,2.0375,2.0379,2.0379,2.0375,2.0373,2.0372,2.0371,2.0364,2.0362,2.0361,0,0,0,0,0,0,2.0347,2.0354,2.0357,2.0358,2.0361,2.0366,2.0365,2.0368,2.0369,2.0369,2.0374,2.0375,2.0371,2.0373,2.0376,2.0369,2.0374,2.0374,2.0369,2.0367,2.0366,2.0365,2.0383,0,0,0,0,0,2.0346,2.0348,2.0353,2.0353,2.0354,2.0359,2.036,2.0363,2.0365,2.0366,2.0368,2.0369,2.0368,2.0368,2.0368,2.0364,2.0363,2.036,2.0359,2.0358,2.0357,2.0352,2.035,2.0369,2.0369,2.0369,0,0,2.0343,2.0347,2.0348,2.0352,2.0354,2.0354,2.036,2.036,2.036,2.0366,2.0364,2.0365,2.0366,2.0362,2.0361,2.0363,2.0352,2.0357,2.0357,2.0356,2.0351,2.0349,2.0348,2.0368,2.0369,2.0369,0,0,2.0338,2.0342,2.0341,2.0343,2.0346,2.0349,2.0348,2.0352,2.0353,2.0352,2.0355,2.0353,2.0353,2.0353,2.0352,2.0343,2.0346,2.0343,2.0336,2.0331,2.033,2.0328,2.0323,2.0321,2.0342,2.0342,2.0342,0,2.0334,2.0335,2.034,2.034,2.034,2.0346,2.0344,2.0345,2.0347,2.0346,2.0349,2.0347,2.0348,2.0343,2.034,2.034,2.0338,2.0343,2.033,2.0328,2.0327,2.0322,2.032,2.0342,2.0342,2.0342,2.0342,0,2.0329,2.0329,2.0328,2.033,2.033,2.0329,2.0332,2.0331,2.0334,2.0335,2.0331,2.0333,2.0331,2.033,2.0333,2.0324,2.0326,2.0329,2.0334,2.0325,2.032,2.0318,2.0341,2.0341,2.0341,2.0341,0,0,2.0321,2.0324,2.0323,2.0323,2.0325,2.0325,2.0322,2.0322,2.032,2.032,2.0317,2.0315,2.0317,2.0316,2.0318,2.0314,2.0303,2.0318,2.0318,2.0313,2.0291,2.0287,2.0285,2.0305,2.0305,2.0305,2.029,0,2.0315,2.0312,2.0315,2.0311,2.031,2.0313,2.0311,2.031,2.0311,2.0309,2.0309,2.0306,2.0311,2.031,2.0306,2.0306,2.0299,2.0307,2.03,2.0299,2.0298,2.0283,2.028,2.0267,2.0288,2.0288,2.0288,0,2.0308,2.0308,2.0304,2.0303,2.0303,2.0301,2.0298,2.0297,2.0295,2.0296,2.0294,2.0296,2.0291,2.0296,2.0287,2.0293,2.0289,2.0288,2.0288,2.0287,2.0292,2.028,2.0263,2.026,2.0285,2.0285,2.0286,0,2.0301,2.0299,2.0296,2.0296,2.0296,2.0293,2.0293,2.0292,2.029,2.0287,2.0286,2.0282,2.028,2.0276,2.0276,2.0281,2.0266,2.0272,2.0265,2.0265,2.0261,2.0261,2.0242,2.0262,2.0262,2.0262,2.0262,0,2.0293,2.029,2.0292,2.029,2.0285,2.0287,2.0282,2.0282,2.028,2.0276,2.0279,2.0274,2.0275,2.027,2.027,2.0261,2.026,2.0259,2.0259,2.0258,2.0258,2.0256,2.0256,2.0261,2.0261,2.0261,2.0261,0,2.0285,2.0286,2.0282,2.0282,2.0281,2.0278,2.0276,2.0273,2.0273,2.0267,2.0266,2.0265,2.0259,2.0258,2.0252,2.0251,2.024,2.0241,2.024,2.024,2.0232,2.0232,2.0209,2.0205,2.0229,2.0228,2.0228,0,2.028,2.0277,2.0276,2.0273,2.0273,2.0269,2.0267,2.0268,2.0265,2.0261,2.0257,2.0251,2.0247,2.0236,2.0234,2.0228,2.0228,2.022,2.0227,2.0225,2.0225,2.0225,2.0223,2.0219,2.0218,2.0218,2.0218,0,2.027,2.027,2.0267,2.0263,2.0261,2.0258,2.0255,2.0253,2.0253,2.0249,2.0243,2.0239,2.0231,2.0224,2.0217,2.0214,2.0215,2.0216,2.0213,2.0212,2.0211,2.0209,2.0235,2.0216,2.0217,2.0217,2.0217,2.0217,2.0262,2.0258,2.0256,2.0252,2.025,2.0246,2.0242,2.024,2.0236,2.023,2.023,2.0222,2.0217,2.0208,2.0204,2.0197,2.0199,2.0196,2.0195,2.0194,2.0192,2.0213,2.0196,2.0196,2.0196,2.0196,2.0196,0,2.025,2.0249,2.0245,2.024,2.0236,2.0238,2.0234,2.0229,2.0223,2.0219,2.0213,2.0204,2.0196,2.0192,2.0184,2.0178,2.0178,2.0176,2.0176,2.0174,2.0192,2.0194,2.0176,2.0176,2.0176,2.0176,2.0176,2.0176,2.0244,2.0238,2.0237,2.0228,2.0225,2.0218,2.0215,2.0211,2.0207,2.0197,2.0191,2.0188,2.0183,2.0174,2.0166,2.0164,2.016,2.0157,2.0156,2.0172,2.0174,2.0176,2.0178,2.0157,2.0157,2.0139,2.0139,2.0139]}]]